This is the latest recevied weather packets stored in our database for station/object M0JUI-1. If no packets are shown the sender has not sent any weather packets the latest 10 day(s).
| Time | Temp. | Humidity | Pressure | Rain* | Wind** | Luminosity | Snow |
|---|---|---|---|---|---|---|---|
| 1777797207 | 10.56° C | 8% | 1009.1 hPa | 0 mm | - | 72 W/m² | - |
| 1777796907 | 10.56° C | 8% | 1009.1 hPa | 0 mm | - | 58 W/m² | - |
| 1777796607 | 10.56° C | 8% | 1009.1 hPa | 0 mm | - | 56 W/m² | - |
| 1777796295 | 10.56° C | 8% | 1009 hPa | 0 mm | - | 45 W/m² | - |
| 1777795995 | 10.56° C | 7% | 1009.2 hPa | 0 mm | - | 46 W/m² | - |
| 1777795695 | 10.56° C | 7% | 1009.1 hPa | 0 mm | - | 50 W/m² | - |
| 1777795383 | 10.56° C | 7% | 1009 hPa | 0 mm | - | 55 W/m² | - |
| 1777795083 | 10.56° C | 7% | 1009 hPa | 0 mm | - | 33 W/m² | - |
| 1777794783 | 10.56° C | 7% | 1009.2 hPa | 0 mm | - | 39 W/m² | - |
| 1777794471 | 10.56° C | 7% | 1009.1 hPa | 0 mm | - | 55 W/m² | - |
| 1777794171 | 10.56° C | 7% | 1009.2 hPa | 0 mm | - | 49 W/m² | - |
| 1777793871 | 10.56° C | 7% | 1009.1 hPa | 0 mm | - | 51 W/m² | - |
| 1777793559 | 10.56° C | 7% | 1009 hPa | 0 mm | - | 49 W/m² | - |
| 1777793259 | 10.56° C | 7% | 1009 hPa | 0 mm | - | 57 W/m² | - |
| 1777792959 | 10.56° C | 7% | 1009 hPa | 0 mm | - | 58 W/m² | - |
| 1777792659 | 10° C | 7% | 1009 hPa | 0 mm | - | 54 W/m² | - |
| 1777792359 | 10° C | 7% | 1009 hPa | 0 mm | - | 51 W/m² | - |
| 1777792059 | 10° C | 7% | 1008.9 hPa | 0 mm | - | 35 W/m² | - |
| 1777791759 | 10.56° C | 6% | 1008.9 hPa | 0 mm | - | 40 W/m² | - |
| 1777791459 | 10° C | 6% | 1009 hPa | 0 mm | - | 45 W/m² | - |
| 1777791159 | 10° C | 6% | 1008.8 hPa | 0 mm | - | 42 W/m² | - |
| 1777790860 | 10° C | 6% | 1008.6 hPa | 0 mm | - | 35 W/m² | - |
| 1777790559 | 10° C | 6% | 1008.8 hPa | 0 mm | - | 42 W/m² | - |
| 1777790260 | 10° C | 6% | 1008.6 hPa | 0 mm | - | 42 W/m² | - |
| 1777789960 | 10.56° C | 6% | 1008.5 hPa | 0 mm | - | 48 W/m² | - |
* Rain latest hour (hover to see other rain measurements)
** Current wind speed in m/s (hover to see current wind gust speed)